[[{"header":{"parameterUnit":"m.s-1","parameterCategory":1,"la1":30.2991,"la2":30.254,"lo1":-89.0895,"lo2":-89.0444,"dy":0.0017,"dx":0.0017,"nx":28,"ny":28,"refTime":"2023-07-27T21:00:00:Z","depth":0,"parameterNumber":2,"parameterNumberName":"U-component_of_WINDS"},"data":[0,0,0,0,0,0,0,0,0,0,0,0,0,0,0,0,0,0,0,0,0,0,0,0,0,0,0,0,0,0,0,0,0,0,0,0,0,0,0,0,0,0,0,0,0,0,0,0,0,0,0,0,0,0,0,0,0,0,0.3149,0.3148,0,0.3082,0.3081,0.308,0.3006,0.3005,0.3004,0.3003,0.2935,0.2934,0.2933,0,0,0,0,0,0,0,0,0,0,0,0,0,0.3212,0.3211,0.3149,0.3148,0.3147,0.3082,0.3081,0.308,0.3006,0.3005,0.3004,0.3003,0.2935,0.2934,0.2933,0,0,0,0,0,0,0,0,0,0,0,0,0,0.3169,0.3211,0.3149,0.3102,0.3098,0.3082,0.3081,0.308,0.3007,0.3005,0.3004,0.3002,0.2935,0.2934,0.2933,0.2958,0,0,0.2929,0.2929,0,0,0,0,0,0,0,0,0.3171,0.3166,0.311,0.3106,0.31,0.3051,0.3078,0.3039,0.3007,0.3041,0.3003,0.3001,0.2975,0.297,0.2961,0.2955,0.2952,0.2929,0.2928,0.2928,0.2927,0,0,0,0,0,0,0,0.3174,0.3169,0.3122,0.3109,0.3103,0.3085,0.3077,0.307,0.3018,0.3038,0.3033,0.3026,0.2972,0.2962,0.2959,0.2951,0.2929,0.2928,0.2927,0.2927,0.2961,0.2962,0,0,0,0,0,0,0.3184,0.3172,0.3124,0.312,0.3132,0.3085,0.3076,0.3068,0.3018,0.3008,0.3027,0.3023,0.2965,0.296,0.2956,0.2982,0.2928,0.2927,0.2926,0.2959,0.2961,0.2963,0,0,0,0,0,0,0.3186,0.3181,0.3127,0.3144,0.3136,0.3086,0.3077,0.3068,0.3059,0.3009,0.3,0.3028,0.2964,0.2958,0.2958,0.2979,0.2926,0.2925,0.2957,0.296,0.2962,0.3034,0,0,0,0,0,0,0.3188,0.3182,0.3191,0.3145,0.3136,0.313,0.3079,0.3068,0.3057,0.305,0.3007,0.2999,0.2962,0.296,0.2957,0.2976,0.2924,0.2955,0.2958,0.2961,0.3029,0.3039,0.3046,0,0,0,0,0,0.3191,0.3214,0.3192,0.3187,0.3146,0.3132,0.3126,0.3084,0.3059,0.3067,0.3036,0.3,0.2977,0.2961,0.2956,0.2975,0.2954,0.2957,0.2961,0.3026,0.3037,0.3046,0,0,0,0,0,0,0.3264,0.3207,0.3182,0.3191,0.3167,0.3119,0.3129,0.3097,0.3079,0.3073,0.3021,0.3012,0.3018,0.2997,0.298,0.2997,0.296,0.2963,0.3011,0.3021,0.3029,0.3035,0.2923,0,0,0,0,0,0.3281,0.3274,0.3225,0.3238,0.3227,0.318,0.3172,0.3142,0.3114,0.3103,0.3072,0.3046,0.3033,0.3026,0.3011,0.3026,0.3015,0.3037,0.3045,0.3052,0.3056,0.3061,0.307,0.2975,0.2975,0.2975,0,0,0.3317,0.3285,0.3284,0.3252,0.3229,0.3223,0.3172,0.3168,0.3163,0.3103,0.3101,0.3077,0.3045,0.3052,0.3054,0.3034,0.3079,0.3057,0.3063,0.3062,0.3066,0.3075,0.3083,0.2977,0.2977,0.2976,0,0,0.3378,0.3354,0.3362,0.334,0.3306,0.3275,0.3277,0.3234,0.3215,0.3212,0.3167,0.316,0.3139,0.3118,0.3104,0.3157,0.3124,0.3154,0.3198,0.3205,0.3212,0.3219,0.3238,0.3245,0.3157,0.3158,0.3158,0,0.3427,0.3416,0.337,0.3368,0.3356,0.3301,0.3308,0.3289,0.3253,0.3245,0.3223,0.3195,0.317,0.3172,0.3184,0.3175,0.3176,0.3159,0.3215,0.3221,0.3226,0.3244,0.3251,0.3161,0.3161,0.3161,0.316,0,0.3477,0.347,0.3481,0.3447,0.3435,0.3438,0.3392,0.3386,0.3356,0.3327,0.3325,0.3292,0.327,0.3268,0.3239,0.3265,0.3254,0.3224,0.3187,0.324,0.3256,0.3262,0.3167,0.3166,0.3165,0.3164,0,0,0.3584,0.3524,0.3529,0.3512,0.3471,0.3464,0.3465,0.3443,0.3438,0.3414,0.3414,0.3396,0.3368,0.3353,0.3321,0.3327,0.3371,0.3296,0.3295,0.3312,0.3398,0.3421,0.343,0.3348,0.3349,0.335,0.3401,0,0.3639,0.3636,0.3595,0.3604,0.3597,0.3544,0.3544,0.3519,0.3491,0.3481,0.3451,0.3439,0.3403,0.3394,0.3397,0.3365,0.3388,0.3361,0.3347,0.3347,0.3357,0.3438,0.3462,0.3512,0.3407,0.3408,0.3409,0,0.3703,0.3683,0.3692,0.3649,0.3645,0.3646,0.3622,0.3613,0.3582,0.3562,0.3545,0.3508,0.3505,0.3469,0.3464,0.3447,0.3439,0.3422,0.3423,0.342,0.3382,0.3438,0.3527,0.3535,0.3418,0.3417,0.3416,0,0.378,0.3755,0.3757,0.3745,0.3696,0.3697,0.3677,0.3645,0.3634,0.3613,0.3606,0.3585,0.3573,0.3558,0.3517,0.3494,0.3516,0.3477,0.3499,0.3501,0.3507,0.3507,0.3596,0.3501,0.3501,0.3501,0.3501,0,0.3846,0.3854,0.3791,0.3793,0.3799,0.3751,0.3759,0.3733,0.3705,0.37,0.3653,0.3649,0.3595,0.3585,0.3552,0.3553,0.3548,0.3532,0.3523,0.3536,0.3539,0.3531,0.3526,0.3503,0.3502,0.3502,0.3502,0,0.3935,0.3893,0.3892,0.3845,0.3833,0.384,0.38,0.3799,0.3768,0.3763,0.3758,0.371,0.3696,0.3653,0.3628,0.3606,0.3617,0.36,0.3628,0.3622,0.3647,0.3646,0.3735,0.3744,0.3643,0.3644,0.3645,0,0.398,0.3984,0.3938,0.3931,0.3913,0.3902,0.3891,0.3843,0.3833,0.3799,0.3802,0.3784,0.3767,0.3747,0.371,0.369,0.3673,0.3705,0.367,0.3683,0.3674,0.3674,0.3674,0.3714,0.3715,0.3716,0.3717,0,0.4064,0.4043,0.4029,0.4007,0.3995,0.3976,0.3954,0.3951,0.3897,0.3888,0.3873,0.386,0.3834,0.3817,0.3792,0.377,0.3735,0.3728,0.3732,0.3746,0.3762,0.3754,0.3649,0.3727,0.3726,0.3725,0.3724,0.3724,0.4133,0.4134,0.4101,0.4087,0.4065,0.4045,0.4042,0.4011,0.3997,0.3973,0.3945,0.3933,0.3902,0.3864,0.3845,0.3834,0.3815,0.3822,0.3823,0.3826,0.3832,0.3763,0.383,0.3829,0.3829,0.3829,0.3828,0,0.4215,0.4191,0.4178,0.4149,0.4137,0.4104,0.4078,0.407,0.4061,0.4034,0.4019,0.4001,0.3984,0.3945,0.3924,0.3923,0.3907,0.392,0.392,0.3915,0.385,0.3849,0.3934,0.3934,0.3934,0.3934,0.3934,0.3934,0.4257,0.4257,0.4233,0.4222,0.4197,0.4186,0.4173,0.4155,0.4133,0.4116,0.4102,0.4076,0.4045,0.4021,0.4004,0.3993,0.3987,0.4006,0.399,0.393,0.392,0.391,0.3909,0.4005,0.4005,0.4056,0.4056,0.4056]},{"header":{"parameterUnit":"m.s-1","parameterCategory":1,"la1":30.2991,"la2":30.254,"lo1":-89.0895,"lo2":-89.0444,"dy":0.0017,"dx":0.0017,"nx":28,"ny":28,"refTime":"2023-07-27T21:00:00:Z","depth":0,"parameterNumber":3,"parameterNumberName":"V-component_of_WINDS"},"data":[0,0,0,0,0,0,0,0,0,0,0,0,0,0,0,0,0,0,0,0,0,0,0,0,0,0,0,0,0,0,0,0,0,0,0,0,0,0,0,0,0,0,0,0,0,0,0,0,0,0,0,0,0,0,0,0,0,0,-0.3045,-0.3045,0,-0.303,-0.303,-0.3029,-0.3022,-0.3022,-0.3022,-0.3022,-0.3004,-0.3004,-0.3003,0,0,0,0,0,0,0,0,0,0,0,0,0,-0.3067,-0.3067,-0.3045,-0.3045,-0.3045,-0.303,-0.303,-0.3029,-0.3022,-0.3022,-0.3022,-0.3022,-0.3005,-0.3004,-0.3003,0,0,0,0,0,0,0,0,0,0,0,0,0,-0.3055,-0.3067,-0.3045,-0.3039,-0.3039,-0.303,-0.303,-0.3029,-0.3022,-0.3022,-0.3022,-0.3022,-0.3005,-0.3004,-0.3003,-0.2999,0,0,-0.3001,-0.3001,0,0,0,0,0,0,0,0,-0.3056,-0.3055,-0.304,-0.304,-0.3039,-0.3028,-0.3031,-0.3019,-0.3022,-0.3028,-0.3022,-0.3022,-0.3012,-0.3011,-0.3008,-0.2998,-0.2997,-0.3001,-0.3001,-0.3,-0.3,0,0,0,0,0,0,0,-0.3057,-0.3055,-0.3039,-0.304,-0.3039,-0.3037,-0.3035,-0.3029,-0.302,-0.3028,-0.3027,-0.3025,-0.3012,-0.3008,-0.3007,-0.2997,-0.3001,-0.3001,-0.3,-0.3,-0.2983,-0.2983,0,0,0,0,0,0,-0.3059,-0.3056,-0.304,-0.3039,-0.3048,-0.3037,-0.3035,-0.3031,-0.302,-0.3019,-0.3025,-0.3025,-0.301,-0.3008,-0.3007,-0.3001,-0.3,-0.3,-0.2999,-0.2983,-0.2983,-0.2983,0,0,0,0,0,0,-0.3059,-0.3057,-0.304,-0.3047,-0.3045,-0.3036,-0.3032,-0.3031,-0.3028,-0.3019,-0.3017,-0.3024,-0.301,-0.3008,-0.3001,-0.3,-0.3,-0.2999,-0.2983,-0.2983,-0.2983,-0.2989,0,0,0,0,0,0,-0.306,-0.3058,-0.3056,-0.3047,-0.3044,-0.3035,-0.3032,-0.3031,-0.3027,-0.3026,-0.3017,-0.3015,-0.3009,-0.3002,-0.3,-0.2999,-0.2998,-0.2983,-0.2983,-0.2983,-0.2989,-0.2989,-0.299,0,0,0,0,0,-0.3061,-0.3058,-0.3056,-0.3054,-0.3043,-0.3035,-0.3034,-0.3028,-0.3027,-0.3025,-0.3019,-0.3015,-0.3001,-0.3002,-0.2999,-0.2998,-0.2983,-0.2983,-0.2983,-0.2989,-0.2989,-0.299,0,0,0,0,0,0,-0.3067,-0.3057,-0.3055,-0.3049,-0.3043,-0.3034,-0.3032,-0.3028,-0.3022,-0.3022,-0.3014,-0.3012,-0.3006,-0.3001,-0.3003,-0.2993,-0.2992,-0.2991,-0.2997,-0.2997,-0.2997,-0.2998,-0.2998,0,0,0,0,0,-0.3068,-0.3063,-0.3054,-0.305,-0.3048,-0.304,-0.3037,-0.3033,-0.3026,-0.3023,-0.3017,-0.301,-0.3004,-0.3,-0.2994,-0.2988,-0.2986,-0.2986,-0.2987,-0.2987,-0.2987,-0.2983,-0.2983,-0.2983,-0.2983,-0.2983,0,0,-0.3069,-0.3063,-0.306,-0.3051,-0.3046,-0.3041,-0.3038,-0.3033,-0.3029,-0.3023,-0.3016,-0.3011,-0.3003,-0.2997,-0.2994,-0.2993,-0.2986,-0.2987,-0.2987,-0.2987,-0.2983,-0.2983,-0.2983,-0.2983,-0.2983,-0.2983,0,0,-0.3069,-0.3064,-0.306,-0.3055,-0.3048,-0.3043,-0.3042,-0.3034,-0.303,-0.3024,-0.3019,-0.3014,-0.3004,-0.2998,-0.2994,-0.2992,-0.2988,-0.299,-0.2992,-0.2989,-0.2989,-0.2989,-0.2988,-0.2988,-0.299,-0.299,-0.299,0,-0.3072,-0.3064,-0.3059,-0.3054,-0.305,-0.3044,-0.304,-0.3036,-0.3026,-0.3024,-0.3023,-0.301,-0.3004,-0.2996,-0.2996,-0.2993,-0.2991,-0.2991,-0.2989,-0.2989,-0.2989,-0.2988,-0.2988,-0.299,-0.299,-0.299,-0.299,0,-0.3068,-0.3063,-0.3061,-0.3052,-0.3048,-0.3044,-0.3037,-0.3033,-0.303,-0.3025,-0.3018,-0.3011,-0.3004,-0.3002,-0.2998,-0.2993,-0.2993,-0.2991,-0.2989,-0.2989,-0.2989,-0.2988,-0.2991,-0.2991,-0.2991,-0.2991,0,0,-0.3071,-0.306,-0.3059,-0.3055,-0.3047,-0.3043,-0.3038,-0.3031,-0.3028,-0.3022,-0.3017,-0.3009,-0.3007,-0.3002,-0.2998,-0.2995,-0.2994,-0.2993,-0.2993,-0.2993,-0.2989,-0.299,-0.299,-0.2991,-0.2991,-0.2991,-0.2989,0,-0.307,-0.3061,-0.3056,-0.305,-0.3045,-0.304,-0.3036,-0.303,-0.3025,-0.302,-0.3015,-0.3009,-0.3007,-0.3004,-0.3001,-0.2995,-0.2993,-0.2995,-0.2987,-0.2987,-0.2989,-0.299,-0.2991,-0.299,-0.2989,-0.2989,-0.2989,0,-0.3067,-0.3062,-0.3055,-0.3047,-0.3045,-0.3041,-0.3035,-0.303,-0.3023,-0.302,-0.3015,-0.3011,-0.3005,-0.3004,-0.2996,-0.2997,-0.2994,-0.299,-0.299,-0.2989,-0.2988,-0.2988,-0.2989,-0.2989,-0.2988,-0.2988,-0.2988,0,-0.307,-0.3061,-0.3056,-0.3053,-0.3043,-0.3041,-0.3037,-0.303,-0.3026,-0.302,-0.3018,-0.3011,-0.3007,-0.3002,-0.2996,-0.2995,-0.2988,-0.2986,-0.2985,-0.2985,-0.2984,-0.2984,-0.2984,-0.2982,-0.2982,-0.2982,-0.2982,0,-0.3069,-0.3065,-0.3057,-0.3054,-0.3049,-0.3043,-0.3039,-0.3034,-0.3028,-0.3024,-0.3018,-0.3014,-0.3006,-0.3001,-0.2996,-0.299,-0.2989,-0.2986,-0.2984,-0.2986,-0.2986,-0.2984,-0.2983,-0.2982,-0.2982,-0.2982,-0.2982,0,-0.3072,-0.3066,-0.306,-0.3052,-0.305,-0.3047,-0.304,-0.3036,-0.3031,-0.3026,-0.3024,-0.3016,-0.301,-0.3003,-0.2995,-0.2991,-0.2985,-0.2984,-0.2988,-0.2987,-0.2986,-0.2986,-0.2984,-0.2983,-0.2982,-0.2982,-0.2982,0,-0.3071,-0.3068,-0.306,-0.3057,-0.3053,-0.3048,-0.3044,-0.3038,-0.3034,-0.3026,-0.3024,-0.3017,-0.3012,-0.3002,-0.2995,-0.2988,-0.2986,-0.2986,-0.2985,-0.2987,-0.2986,-0.2986,-0.2986,-0.2986,-0.2986,-0.2986,-0.2986,0,-0.3071,-0.3069,-0.3064,-0.3058,-0.3054,-0.3049,-0.3043,-0.3041,-0.3033,-0.3029,-0.3023,-0.3019,-0.301,-0.3003,-0.2996,-0.2991,-0.2987,-0.2987,-0.2986,-0.2987,-0.299,-0.2989,-0.2989,-0.2987,-0.2987,-0.2987,-0.2986,-0.2986,-0.3072,-0.3069,-0.3063,-0.3058,-0.3053,-0.3048,-0.3045,-0.304,-0.3035,-0.3027,-0.3024,-0.3018,-0.3011,-0.3,-0.2996,-0.2991,-0.2989,-0.2988,-0.2988,-0.2988,-0.2988,-0.2991,-0.2989,-0.2989,-0.2989,-0.2989,-0.2989,0,-0.3072,-0.3068,-0.3063,-0.3056,-0.3052,-0.3049,-0.3043,-0.3039,-0.3034,-0.3028,-0.3023,-0.3016,-0.3009,-0.3002,-0.2995,-0.2992,-0.2991,-0.2991,-0.2991,-0.299,-0.299,-0.2991,-0.2993,-0.2993,-0.2993,-0.2993,-0.2993,-0.2993,-0.3072,-0.3067,-0.3063,-0.3056,-0.3051,-0.3046,-0.3042,-0.3038,-0.3033,-0.3025,-0.302,-0.3016,-0.301,-0.3002,-0.2996,-0.2994,-0.2992,-0.2993,-0.299,-0.299,-0.299,-0.299,-0.2991,-0.2992,-0.2992,-0.2991,-0.2991,-0.2991]}]]